Voltar ao catálogo

THOR ABLESTAR DEB

AtivoLEO
NORAD 558·DEBRIS·🇺🇸 United States

Lançado Jun 29, 1961 de Cape Canaveral Space Force Station

Loading…

Próximas Passagens (próximas 24 horas)

TLE

AtualizadoSource: Space-Track

Época: Sep 14, 2026, 14:27 UTC

1 00558U 61015GQ  26257.60263027 -.00000017  00000-0  11874-3 0  9992
2 00558  65.7015 326.3535 0463453  63.0859   8.7043 12.86541563 61063

Acompanhe THOR ABLESTAR DEB em tempo real com AllMySat

Download on the App Store